Regional Weather Roundup
Issued by NWS

Home | Current Version | Previous Version | Graphics & Text | Print | Product List | Glossary On
Versions: 1 2 3 4 5 6 7 8 9 10 11 12 13 14 15 16 17 18 19 20 21 22 23 24 25 26 27 28 29 30 31 32 33 34 35 36 37 38 39 40 41 42 43 44 45 46 47 48 49 50
000
ASUS44 KMEG 210110
RWRTN
TENNESSEE HOURLY STATE WEATHER ROUNDUP
NATIONAL WEATHER SERVICE MEMPHIS TN
800 PM CDT SUN APR 20 2014

TNZ002-004-019-021-049-052-054-088>092-210200-
WEST TENNESSEE

CITY           SKY/WX    TMP DP  RH WIND       PRES   REMARKS
MEMPHIS INTL   PTCLDY    71  47  42 S3        30.09R
NWS MEMPHIS      N/A     70 N/A N/A MISG        N/A
JACKSON        CLEAR     67  49  52 CALM      30.09S
DYERSBURG      CLEAR     68  45  42 CALM      30.10R
UNION CITY     CLEAR     70  45  40 CALM      30.09S
PARIS          PTCLDY    61  47  59 CALM      30.11R
LEXINGTON      CLEAR     70  43  37 CALM      30.10R
$$

TNZ008-025-027-028-033-062-065-066-210200-
NORTH MIDDLE TENNESSEE

CITY           SKY/WX    TMP DP  RH WIND       PRES   REMARKS
NASHVILLE      MOCLDY    70  43  37 CALM      30.11R
DICKSON        MOCLDY    72  41  33 CALM      30.11R
PORTLAND         N/A     66  45  45 CALM      30.11S
CLARKSVILLE    PTCLDY    67  42  40 E3        30.10R
SMYRNA         MOCLDY    66  49  54 CALM      30.11S
MURFREESBORO   MOCLDY    69  47  45 CALM      30.10S
COOKEVILLE     CLEAR     61  50  67 CALM      30.12R
LIVINGSTON     MOCLDY    68  36  30 CALM      30.13R
GALLATIN       MOCLDY    67  50  54 CALM      30.12R
CROSSVILLE     MOCLDY    67  37  33 S3        30.16R
$$

TNZ061-075-076-078-094-096-097-210200-
SOUTH MIDDLE TENNESSEE

CITY           SKY/WX    TMP DP  RH WIND       PRES   REMARKS
LEWISBURG      MOCLDY    64  51  62 S3        30.11R
FAYETTEVILLE   PTCLDY    67  45  45 CALM      30.13R
TULLAHOMA      CLEAR     63  45  51 CALM      30.14R
WINCHESTER     CLEAR     64  46  52 CALM      30.13R
MCMINNVILLE    CLEAR     64  52  63 CALM      30.13R
COLUMBIA       CLEAR     68  52  56 SE6       30.10R
SHELBYVILLE    MOCLDY    68  46  45 CALM      30.13R
$$

TNZ017-018-042-046-047-210200-
NORTHEAST TENNESSEE

CITY           SKY/WX    TMP DP  RH WIND       PRES   REMARKS
TRI CITIES     PTCLDY    61  32  33 CALM      30.16R
ELIZABETHTON   CLEAR     61  30  31 CALM      30.18R
$$

TNZ012-013-036-069-073-074-210200-
CENTRAL EAST TENNESSEE

CITY           SKY/WX    TMP DP  RH WIND       PRES   REMARKS
KNOXVILLE      MOCLDY    67  36  31 CALM      30.12R
OAK RIDGE      PTCLDY    65  43  44 CALM      30.14R
$$

TNZ083-085-099-210200-
SOUTHEAST TENNESSEE

CITY           SKY/WX    TMP DP  RH WIND       PRES   REMARKS
CHATTANOOGA    MOCLDY    66  47  50 CALM      30.12R
$$

SKY/WX REPORTED AS FAIR MEANS FEW OR NO CLOUDS BELOW
12 THOUSAND FEET.




USA.gov is the U.S. government's official web portal to all federal, state and local government web resources and services.